Location: Melbourne
(37.8170°S, 144.9670°E)
Time: 18:49:11
(UTC+10:00)

ISS - Visible Passes

Search period start: 27 August 2014 00:00
Search period end: 06 September 2014 00:00
Orbit: 413 x 419 km, 51.6° (Epoch: 27 August)

Date Brightness Start Highest point End Pass type
(mag) Time Alt. Az. Time Alt. Az. Time Alt. Az.
27 Aug -0.5 04:51:03 13° SSE 04:51:24 13° SSE 04:53:08 10° SE visible
28 Aug -1.8 05:37:24 14° SSW 05:40:02 35° SSE 05:43:10 10° E visible
29 Aug -1.2 04:50:54 23° SSE 04:51:14 23° SSE 04:54:01 10° E visible
30 Aug 0.3 04:04:30 11° ESE 04:04:30 11° ESE 04:04:38 10° ESE visible
30 Aug -3.3 05:37:24 22° SW 05:39:29 84° NW 05:42:51 10° NE visible
31 Aug -2.4 04:51:07 50° ESE 04:51:07 50° ESE 04:54:05 10° ENE visible
01 Sep 0.2 04:04:56 11° E 04:04:56 11° E 04:05:03 10° E visible
01 Sep -2.1 05:37:52 24° WNW 05:38:36 26° NW 05:41:28 10° N visible
02 Sep -1.3 04:51:50 22° NNE 04:51:50 22° NNE 04:53:14 10° NNE visible
04 Sep -0.9 19:50:03 10° NNW 19:50:55 16° NNW 19:50:55 16° NNW visible
05 Sep -1.9 19:01:52 10° N 19:04:33 22° NE 19:05:02 21° ENE visible
05 Sep 0.2 20:37:57 10° WNW 20:37:58 10° WNW 20:37:58 10° WNW visible
